| Station | Date | Time | Temp (°F) | RH (%) | Dew Pt (°F) | Wind Spd (mph) | Wind Dir (°) | Wind Gust (mph) | Latest Rain (In) | Daily Rain (In) | Daily Max Temp (°F) | Daily Min Temp (°F) |
|---|---|---|---|---|---|---|---|---|---|---|---|---|
| Dollarhide 17B Remote | 5/2/26 | 0945 | 60.4 7.9 | 77 16 | 53.2 1.1 | - | - | - | - | - | 61.2 7.7 | 48.0 3.1 |
| Dollarhide 18A Remote | 5/2/26 | 0945 | 60.6 6.1 | 69 8 | 50.6 2.5 | - | - | - | - | - | 61.0 6.0 | 45.2 4.2 |
| Dollarhide 1AS Remote | 5/2/26 | 0945 | 60.7 7.4 | 76 13 | 53.0 1.8 | 3.4 2.3 | S | 178 | 9.0 5.8 | - | - | 60.7 7.4 | 47.8 4.1 |
| Angwin | 5/2/26 | 0945 | 49.5 20.5 | 98 53 | 49.1 1.1 | 2.7 0.7 | SSE | 163 | 6.4 2.1 | 0.00 | 0.00 | 60.8 12.0 | 46.5 15.6 |
| Lower Angwin (Pioneer) | 5/2/26 | 0945 | 49.2 20.6 | - | - | 3.4 0.7 | SW | 235 | 8.3 2.6 | - | - | 49.8 21.5 | 45.7 0.5 |
| Lower Chiles Valley (Brown) | 5/2/26 | 0945 | 54.8 0.2 | 85 2 | 50.3 0.3 | 3.9 2.8 | NW | 324 | 7.1 3.2 | 0.00 | 0.00 | 56.2 1.1 | 49.9 3.0 |
| Deer Park | 5/2/26 | 0945 | 53.5 0.8 | 85 1 | 49.2 1.0 | 1.4 1.7 | SSW | 199 | 5.5 0.6 | 0.00 | 0.00 | 53.8 0.9 | 50.4 2.6 |
| Moss Creek Vineyard/Reservior | 5/2/26 | 0930 | 55.1 10.0 | 81 17 | 49.5 3.1 | - | - | - | 0.00 | 0.00 | 55.8 11.0 | 46.9 0.3 |
| Montesol | 5/2/26 | 0945 | 59.7 12.9 | - | - | - | - | - | 0.00 | 0.00 | 61.4 11.2 | 46.4 1.4 |
| Dollarhide Base | 5/2/26 | 0945 | 62.6 6.6 | 70 13 | 52.8 0.7 | 3.3 1.3 | S | 190 | 8.8 4.4 | 0.00 | 0.00 | 62.6 6.6 | 49.8 1.5 |
| Pope Valley (Weeks Lake) | 5/2/26 | 0945 | 58.8 8.5 | 72 15 | 49.8 1.9 | 3.1 1.8 | SE | 137 | 7.7 4.2 | 0.00 | 0.00 | 59.4 8.4 | 45.8 4.6 |
| Max | 62.6 | 98 | 53.2 | 3.9 | - | 9.0 | 0.00 | 0.00 | 62.6 | 50.4 | ||
| Avg | 56.8 | 79 | 50.8 | 3.0 | - | 7.5 | 0.00 | - | - | - | ||
| Min | 49.2 | 69 | 49.1 | 1.4 | - | 5.5 | 0.00 | 0.00 | 49.8 | 45.2 |
| Station | Date | Time | Temp (°F) | RH (%) | Dew Pt (°F) | Wind Spd (mph) | Wind Dir (°) | Wind Gust (mph) | Latest Rain (In) | Daily Rain (In) | Daily Max Temp (°F) | Daily Min Temp (°F) |
|---|---|---|---|---|---|---|---|---|---|---|---|---|
| Calistoga-North | 5/2/26 | 0945 | 55.2 6.2 | 86 11 | 51.1 2.5 | - | - | - | 0.00 | 0.00 | 83.7 22.1 | 45.5 0.0 |
| Stags Leap Dist (Chimney Rock) | 5/2/26 | 0945 | 55.2 0.2 | 86 3 | 51.2 1.0 | 3.2 0.4 | SSE | 168 | 6.9 0.7 | 0.00 | 0.00 | 55.4 0.2 | 53.3 9.5 |
| Diamond Mtn (McEachran) | 5/2/26 | 0945 | 53.5 0.4 | 87 2 | 49.8 1.0 | - | - | - | - | - | 53.7 0.6 | 51.2 3.0 |
| Diamond Mtn (Schramsberg) | 5/2/26 | 0945 | 51.3 2.2 | 100 7 | 51.3 0.1 | - | - | - | 0.00 | 0.00 | 51.6 3.0 | 49.3 0.4 |
| Stags Leap Dist (Silverado Vineyards) | 5/2/26 | 0945 | 54.0 0.3 | 81 3 | 48.3 1.2 | 2.1 1.1 | S | 175 | 5.3 2.5 | 0.00 | 0.00 | 54.2 0.3 | 52.3 7.2 |
| Oak Knoll-East (Ranch 53) | 5/2/26 | 0945 | 54.8 0.8 | 82 2 | 49.4 1.5 | 3.5 2.4 | SSW | 193 | 6.8 2.5 | 0.00 | 0.00 | 55.0 1.1 | 51.8 6.7 |
| Rutherford-North (Mee Ln) | 5/2/26 | 0945 | 55.7 1.2 | 79 4 | 49.4 0.2 | 2.7 0.5 | SE | 134 | 5.0 1.8 | 0.00 | 0.00 | 55.9 0.8 | 50.1 7.5 |
| Frisinger Napa-NW | 5/2/26 | 0945 | 55.2 0.6 | 84 1 | 50.5 0.9 | 4.2 0.3 | SW | 236 | 6.9 0.5 | 0.00 | 0.00 | 55.2 0.7 | 49.5 3.5 |
| Napa-North (Ranch 29) | 5/2/26 | 0945 | 55.2 0.9 | 83 1 | 50.2 1.1 | 2.8 1.8 | SW | 236 | 5.9 2.4 | 0.00 | 0.00 | 55.4 1.3 | 53.1 7.0 |
| St. Helena (NVV Office) | 5/2/26 | 0945 | 56.0 0.7 | - | - | 1.2 0.1 | NE | 42 | 3.6 0.2 | 0.00 | 0.00 | 56.2 0.3 | 53.1 5.7 |
| Crossroads Ranch | 5/2/26 | 0945 | 55.3 0.0 | 82 3 | 49.8 1.1 | 3.7 0.5 | SSE | 152 | 7.2 1.7 | 0.00 | 0.00 | 55.3 0.0 | 52.4 6.2 |
| Oakville | 5/2/26 | 0945 | 55.5 0.3 | 79 4 | 49.0 0.9 | 2.8 0.5 | ESE | 114 | 6.0 1.1 | 0.00 | 0.00 | 55.6 0.1 | 52.1 6.8 |
| OV561-East | 5/2/26 | 0945 | 55.9 0.9 | - | - | - | - | - | - | - | 56.2 0.8 | 52.1 5.3 |
| OV518-West | 5/2/26 | 0945 | 55.9 0.3 | - | - | - | - | - | - | - | 56.1 0.1 | 52.6 6.3 |
| Napa-NW (Ranch 54) | 5/2/26 | 0945 | 56.4 1.5 | 78 0 | 49.8 1.3 | 2.4 1.8 | SSW | 199 | 6.4 3.2 | 0.00 | 0.00 | 56.7 1.4 | 51.3 4.6 |
| Calistoga (Ranch 78) | 5/2/26 | 0945 | 55.2 3.4 | 82 4 | 49.7 2.0 | 1.2 3.0 | WSW | 253 | 3.7 3.1 | 0.00 | 0.00 | 55.2 3.4 | 52.5 7.7 |
| Yountville-SE (Ranch 85) | 5/2/26 | 0945 | 55.1 0.1 | 83 2 | 50.1 0.8 | 1.7 0.3 | S | 186 | 6.7 1.8 | 0.00 | 0.00 | 55.2 0.1 | 53.2 7.8 |
| Yountville-South (Ranch 87) | 5/2/26 | 0945 | 55.4 0.1 | 82 4 | 50.2 1.2 | 1.8 0.0 | SSE | 168 | 3.8 1.1 | 0.00 | 0.00 | 55.7 0.1 | 52.3 7.0 |
| Rutherford Hill Estate | 5/2/26 | 0945 | 54.3 0.7 | 85 6 | 49.8 1.1 | 1.6 0.0 | S | 186 | 4.6 0.0 | 0.00 | 0.00 | 54.6 0.5 | 51.3 2.2 |
| Rutherford (STS) | 5/2/26 | 0945 | 56.8 0.3 | 84 5 | 51.9 1.3 | 0.7 1.9 | N | 352 | 3.4 2.6 | 0.00 | 0.00 | 57.0 0.5 | 52.5 7.7 |
| Borreo (Soda Canyon) | 5/2/26 | 0945 | 52.1 0.5 | 88 1 | 48.6 0.8 | 1.6 0.8 | SSE | 149 | 5.2 0.5 | 0.00 | 0.00 | 52.4 0.7 | 50.9 6.3 |
| Oakville-NE (Ranch 88) | 5/2/26 | 0945 | 56.0 0.0 | 76 3 | 48.7 0.9 | 2.8 0.3 | SSW | 198 | 8.6 0.9 | 0.00 | 0.00 | 56.3 0.1 | 52.0 7.2 |
| Soda Canyon | 5/2/26 | 0945 | 54.7 0.1 | 84 2 | 49.9 0.7 | 2.9 1.4 | SSW | 203 | 6.8 2.8 | 0.00 | 0.00 | 55.1 0.0 | 53.7 11.4 |
| Silver Oak OV | 5/2/26 | 0945 | 55.4 0.3 | 82 3 | 50.0 0.7 | 3.4 0.5 | SE | 134 | 7.0 1.1 | 0.00 | 0.00 | 55.8 0.4 | 52.2 6.4 |
| Tiara Fria (East St. Helena) | 5/2/26 | 0945 | 55.5 0.4 | 80 4 | 49.3 0.9 | 1.6 0.3 | E | 94 | 5.1 0.6 | 0.00 | 0.00 | 55.7 0.2 | 53.4 5.7 |
| To Kalon Remote (TKKE) | 5/2/26 | 0945 | 56.5 0.3 | - | - | - | - | - | - | - | 57.2 0.5 | 52.9 8.5 |
| To Kalon | 5/2/26 | 0945 | 56.2 1.1 | 79 7 | 49.7 1.2 | 2.0 0.2 | ENE | 75 | 5.1 1.5 | 0.00 | 0.00 | 56.5 0.7 | 52.1 7.0 |
| To Kalon Remote (TKN5) | 5/2/26 | 0945 | 56.6 0.2 | - | - | - | - | - | - | - | 57.2 0.7 | 52.4 6.9 |
| St. Helena-North | 5/2/26 | 0945 | 55.6 1.2 | 76 6 | 48.3 0.9 | 0.8 2.2 | W | 277 | 2.6 3.5 | 0.00 | 0.00 | 56.1 0.7 | 52.8 6.7 |
| Twomey Calistoga | 5/2/26 | 0945 | 55.5 3.7 | 82 6 | 50.0 1.5 | 0.5 1.5 | SSE | 151 | 2.3 2.6 | 0.00 | 0.00 | 55.5 3.7 | 52.6 9.9 |
| Wappo Hill Floor | 5/2/26 | 0945 | 55.4 0.2 | 80 2 | 49.5 0.9 | 2.9 0.0 | SSE | 163 | 6.3 0.8 | 0.00 | 0.00 | 55.7 0.0 | 52.5 9.0 |
| Yountville (Ranch 67) | 5/2/26 | 0945 | 54.6 0.3 | 79 2 | 48.2 1.1 | 2.6 0.9 | SE | 138 | 6.0 1.5 | 0.00 | 0.00 | 54.7 0.4 | 52.2 6.8 |
| Max | 56.8 | 100 | 51.9 | 4.2 | - | 8.6 | 0.00 | 0.00 | 83.7 | 53.7 | ||
| Avg | 55.2 | 83 | 49.8 | 2.3 | - | 5.5 | 0.00 | - | - | - | ||
| Min | 51.3 | 76 | 48.2 | 0.5 | - | 2.3 | 0.00 | 0.00 | 51.6 | 45.5 |
| Station | Date | Time | Temp (°F) | RH (%) | Dew Pt (°F) | Wind Spd (mph) | Wind Dir (°) | Wind Gust (mph) | Latest Rain (In) | Daily Rain (In) | Daily Max Temp (°F) | Daily Min Temp (°F) |
|---|---|---|---|---|---|---|---|---|---|---|---|---|
| Carneros (Milton Rd) | 5/2/26 | 0945 | 56.6 0.3 | 80 7 | 50.7 1.9 | - | - | - | 0.00 | 0.00 | 56.7 0.2 | 53.5 10.9 |
| Carneros Lower (Ranch 81) | 5/2/26 | 0945 | 56.2 0.0 | 83 4 | 51.1 1.2 | 0.3 0.6 | WNW | 294 | 4.2 0.2 | 0.00 | 0.00 | 56.3 0.1 | 52.6 6.9 |
| Carneros Upper (Ranch 81) | 5/2/26 | 0945 | 54.3 0.1 | 86 1 | 50.1 0.4 | 3.3 1.3 | WSW | 255 | 5.8 2.1 | - | - | 54.3 0.4 | 52.1 3.9 |
| Carneros (Mitsuko) | 5/2/26 | 0945 | 55.8 0.2 | - | - | - | - | - | - | - | 56.2 0.3 | 51.8 11.8 |
| Mount George (Napa East) | 5/2/26 | 0945 | 59.0 1.1 | 86 0 | 54.7 1.1 | 1.4 0.3 | W | 277 | 5.1 0.7 | 0.00 | 0.00 | 60.1 1.6 | 57.5 7.6 |
| Napa-East (Palmaz 300') | 5/2/26 | 0945 | 55.2 0.4 | 82 2 | 50.0 0.9 | 2.2 0.7 | W | 264 | 5.2 0.7 | 0.00 | 0.00 | 55.5 0.5 | 53.4 4.7 |
| Napa-East (Palmaz 1200') | 5/2/26 | 0945 | 50.2 0.3 | 54 4 | 33.8 1.2 | 2.5 1.0 | NW | 315 | 8.6 2.3 | - | - | 50.4 0.4 | 49.1 5.3 |
| Napa-East (Palmaz 1400') | 5/2/26 | 0945 | 49.6 2.9 | 100 0 | 49.6 2.9 | 3.3 0.1 | SW | 220 | 8.2 0.7 | 0.00 | 0.00 | 50.0 3.0 | 48.3 2.5 |
| Dealy Lane (Ranch 80) | 5/2/26 | 0945 | 55.0 0.8 | 83 1 | 50.1 1.2 | 2.3 0.1 | WNW | 295 | 5.1 0.5 | 0.00 | 0.00 | 55.0 0.9 | 52.0 6.5 |
| Suscol Mtn (Ranch 93) | 5/2/26 | 0945 | 51.8 1.2 | 93 2 | 49.8 0.7 | 6.1 1.2 | NW | 310 | 9.4 0.5 | 0.00 | 0.00 | 51.9 1.4 | 49.7 0.9 |
| Carneros (Saintsbury) | 5/2/26 | 0945 | 55.0 0.6 | 83 4 | 50.0 0.7 | 4.0 0.5 | W | 262 | 6.9 0.1 | 0.00 | 0.00 | 55.1 0.5 | 50.7 7.4 |
| Sugarloaf West | 5/2/26 | 0945 | 55.9 0.5 | 84 3 | 51.1 1.3 | 3.1 0.4 | SW | 236 | 6.0 0.4 | 0.00 | 0.00 | 56.0 0.4 | 54.1 7.8 |
| Suscol Upper (Ranch 92) | 5/2/26 | 0945 | 52.5 0.9 | 91 0 | 49.8 0.8 | 4.3 2.3 | SW | 227 | 7.8 1.3 | 0.00 | 0.00 | 52.7 1.1 | 50.5 1.0 |
| Stanly (Ranch 45) | 5/2/26 | 0945 | 56.0 1.2 | 80 4 | 49.8 0.3 | 3.3 1.8 | WSW | 248 | 6.0 2.4 | 0.00 | 0.00 | 56.1 1.0 | 52.1 8.3 |
| Suscol Lower (Ranch 35) | 5/2/26 | 0945 | 55.6 1.1 | 81 2 | 50.0 1.6 | 3.2 0.2 | WSW | 253 | 6.3 1.5 | 0.00 | 0.00 | 56.0 0.6 | 53.2 5.4 |
| Napa-South (Toyon Farms) | 5/2/26 | 0945 | 55.4 0.1 | 88 5 | 51.9 1.6 | 0.2 0.0 | W | 265 | 4.4 1.7 | 0.00 | 0.00 | 55.6 0.1 | 52.8 6.1 |
| Toyon Remote 1 | 5/2/26 | 0945 | 55.9 0.2 | - | - | - | - | - | - | - | 56.5 0.0 | 50.1 11.1 |
| Toyon Remote 2 | 5/2/26 | 0945 | 55.8 0.5 | - | - | - | - | - | - | - | 56.3 0.2 | 52.9 9.4 |
| Toyon Remote 3 | 5/2/26 | 0945 | 56.4 0.1 | - | - | - | - | - | - | - | 56.7 0.2 | 51.8 8.5 |
| Napa-West Lower (Truchard) | 5/2/26 | 0945 | 55.2 0.7 | 83 10 | 50.2 2.3 | - | - | - | - | - | 55.3 0.4 | 50.1 8.6 |
| Napa-West Upper (Truchard) | 5/2/26 | 0945 | 53.9 0.3 | 91 9 | 51.4 2.7 | 3.9 0.1 | WSW | 254 | 7.1 0.5 | 0.00 | 0.00 | 54.0 0.5 | 50.9 3.7 |
| Mt. Veeder | 5/2/26 | 0945 | 50.2 6.2 | 100 20 | 50.2 0.2 | 1.3 1.7 | NNE | 25 | 4.1 2.6 | 0.00 | 0.00 | 50.5 7.1 | 46.2 3.7 |
| Wooden Valley | 5/2/26 | 0945 | 52.6 6.5 | 86 14 | 48.6 1.6 | 4.6 1.7 | WNW | 284 | 11.0 1.5 | 0.00 | 0.00 | 53.0 6.5 | 50.6 0.4 |
| Max | 59.0 | 100 | 54.7 | 6.1 | - | 11.0 | 0.00 | 0.00 | 60.1 | 57.5 | ||
| Avg | 54.5 | 85 | 49.6 | 2.9 | - | 6.5 | 0.00 | - | - | - | ||
| Min | 49.6 | 54 | 33.8 | 0.2 | - | 4.1 | 0.00 | 0.00 | 50.0 | 46.2 |